Total_Precipitation_Accumulation
0.12 0.19 0.23 0.28 0.23 0.17 0.14 0.14 0.23 0.30 0.42 0.50 0.50 0.63 0.88 0.73 0.56 0.45 0.48 0.42 0.40 0.42 0.52 0.54 0.61 0.64 0.68 0.75 0.83 0.89 1.07 1.24 1.47 1.70 1.54 1.35 1.32 1.28 1.25 1.30 1.42 1.64 1.80 1.90
0.12 0.16 0.20 0.24 0.26 0.19 0.16 0.14 0.13 0.23 0.39 0.46 0.56 0.60 0.70 0.67 0.60 0.53 0.58 0.57 0.55 0.60 0.61 0.65 0.72 0.70 0.67 0.64 0.76 0.89 1.06 1.19 1.36 1.46 1.34 1.17 1.06 1.07 1.11 1.17 1.32 1.47 1.62 1.70
0.21 0.19 0.22 0.27 0.26 0.22 0.19 0.20 0.21 0.31 0.42 0.43 0.56 0.54 0.57 0.71 0.74 0.69 0.54 0.57 0.61 0.56 0.60 0.62 0.68 0.69 0.66 0.64 0.81 1.05 1.11 1.16 1.27 1.36 1.36 1.25 1.07 1.04 1.07 1.15 1.29 1.37 1.41 1.46
0.35 0.39 0.44 0.36 0.32 0.28 0.26 0.31 0.31 0.35 0.40 0.45 0.58 0.55 0.44 0.46 0.53 0.63 0.65 0.65 0.62 0.60 0.59 0.57 0.57 0.62 0.62 0.66 0.81 1.00 1.09 1.18 1.37 1.51 1.47 1.40 1.33 1.27 1.29 1.31 1.32 1.33 1.36 1.38
0.56 0.56 0.47 0.46 0.46 0.46 0.49 0.59 0.52 0.47 0.45 0.49 0.51 0.55 0.53 0.43 0.39 0.46 0.55 0.67 0.66 0.61 0.60 0.58 0.57 0.61 0.66 0.71 0.89 1.11 1.24 1.33 1.43 1.59 1.63 1.61 1.66 1.68 1.67 1.62 1.50 1.45 1.46 1.48
0.65 0.73 0.72 0.68 0.58 0.52 0.63 0.97 0.88 0.72 0.60 0.58 0.58 0.80 0.88 0.71 0.56 0.51 0.50 0.62 0.73 0.70 0.64 0.62 0.59 0.65 0.79 0.92 1.08 1.21 1.37 1.50 1.55 1.72 1.83 1.79 1.85 1.93 1.98 2.01 1.91 1.85 1.72 1.62
0.74 0.83 0.86 0.79 0.60 0.61 1.08 1.37 1.07 0.90 0.81 0.75 0.81 0.80 0.79 0.70 0.60 0.52 0.51 0.57 0.67 0.82 0.73 0.67 0.69 0.82 0.99 1.08 1.17 1.23 1.39 1.53 1.63 1.83 1.99 2.10 2.24 2.33 2.32 2.29 2.24 2.11 1.91 1.80
0.93 1.11 1.15 0.77 0.74 1.00 1.20 1.09 1.08 1.08 1.11 1.07 0.95 0.75 0.66 0.64 0.56 0.53 0.52 0.53 0.53 0.58 0.63 0.67 0.74 0.93 1.13 1.21 1.21 1.26 1.34 1.51 1.75 1.95 2.00 2.06 2.34 2.42 2.40 2.34 2.24 2.11 1.98 1.81
1.11 1.24 1.02 0.82 0.88 0.93 1.04 1.13 1.16 1.16 1.18 1.09 0.94 0.80 0.70 0.65 0.55 0.50 0.48 0.48 0.51 0.54 0.61 0.70 0.83 1.06 1.34 1.43 1.40 1.36 1.42 1.57 1.81 1.99 2.15 2.27 2.39 2.36 2.33 2.32 2.23 2.09 1.99 1.85
1.23 1.21 0.98 0.92 0.94 0.91 0.98 1.04 1.16 1.10 1.03 0.98 0.93 0.82 0.70 0.59 0.49 0.45 0.48 0.48 0.50 0.54 0.62 0.72 0.86 1.06 1.30 1.31 1.29 1.31 1.34 1.43 1.58 1.72 1.79 1.92 2.10 2.07 1.99 2.00 2.05 2.03 1.96 1.88
1.28 1.31 1.20 1.14 1.13 1.02 0.92 0.87 0.86 0.87 0.86 0.89 0.89 0.87 0.72 0.60 0.51 0.43 0.42 0.44 0.49 0.60 0.73 0.80 0.88 0.98 1.06 1.13 1.18 1.22 1.21 1.24 1.33 1.43 1.55 1.67 1.74 1.81 1.78 1.75 1.68 1.69 1.70 1.70
1.41 1.27 1.23 1.37 1.24 1.10 0.92 0.85 0.81 0.76 0.76 0.79 0.79 0.80 0.68 0.59 0.55 0.45 0.38 0.42 0.52 0.62 0.72 0.81 0.92 1.05 1.10 1.12 1.20 1.28 1.27 1.23 1.22 1.27 1.35 1.41 1.51 1.51 1.47 1.37 1.26 1.18 1.15 1.16
1.12 1.05 1.03 1.11 1.06 0.97 0.89 0.91 0.94 0.88 0.81 0.76 0.75 0.72 0.62 0.55 0.50 0.44 0.44 0.47 0.55 0.58 0.62 0.68 0.80 0.97 1.10 1.25 1.32 1.38 1.36 1.29 1.26 1.20 1.21 1.28 1.36 1.42 1.41 1.24 1.05 0.92 0.83 0.80
0.93 0.88 0.95 0.96 0.93 0.86 0.85 0.89 0.92 0.82 0.79 0.75 0.75 0.70 0.62 0.55 0.50 0.46 0.45 0.46 0.49 0.51 0.54 0.64 0.74 0.83 0.94 1.15 1.32 1.38 1.37 1.32 1.25 1.19 1.15 1.18 1.22 1.24 1.31 1.36 1.26 1.07 0.87 0.72
1.08 0.88 0.88 0.87 0.86 0.84 0.76 0.77 0.76 0.71 0.66 0.68 0.68 0.67 0.61 0.56 0.50 0.48 0.45 0.44 0.48 0.54 0.56 0.66 0.76 0.82 0.93 1.06 1.15 1.17 1.17 1.14 1.10 1.11 1.13 1.12 1.15 1.16 1.15 1.22 1.22 1.16 1.02 0.85
1.04 0.85 0.75 0.73 0.77 0.83 0.78 0.72 0.70 0.68 0.63 0.59 0.59 0.54 0.50 0.46 0.44 0.44 0.44 0.46 0.56 0.62 0.67 0.79 0.84 0.87 1.00 1.11 1.17 1.15 1.14 1.09 1.02 1.03 1.08 1.10 1.11 1.11 1.09 1.15 1.16 1.16 1.06 0.89
0.97 0.86 0.75 0.66 0.65 0.69 0.72 0.64 0.59 0.59 0.57 0.52 0.50 0.47 0.42 0.41 0.43 0.43 0.41 0.42 0.51 0.61 0.70 0.87 0.92 0.92 1.04 1.16 1.23 1.21 1.14 1.04 0.91 0.88 0.92 0.98 1.03 1.03 1.01 1.03 1.03 1.06 0.96 0.76
0.80 0.76 0.72 0.68 0.62 0.59 0.64 0.61 0.54 0.55 0.57 0.50 0.44 0.43 0.45 0.50 0.60 0.65 0.62 0.58 0.62 0.61 0.65 0.78 0.85 0.93 1.03 1.13 1.19 1.20 1.17 1.08 0.95 0.83 0.80 0.86 0.92 0.96 0.96 0.95 0.95 0.95 0.86 0.66
0.64 0.67 0.66 0.66 0.64 0.59 0.63 0.62 0.60 0.59 0.57 0.51 0.46 0.47 0.50 0.59 0.72 0.80 0.80 0.81 0.85 0.82 0.75 0.72 0.80 0.84 0.93 1.01 1.04 1.11 1.09 1.03 0.93 0.77 0.73 0.78 0.83 0.92 0.92 0.85 0.86 0.86 0.77 0.64
0.59 0.59 0.59 0.63 0.71 0.72 0.71 0.68 0.66 0.63 0.58 0.54 0.55 0.57 0.61 0.66 0.77 0.85 0.86 0.86 0.85 0.89 0.83 0.74 0.71 0.73 0.79 0.85 0.90 0.95 0.93 0.94 0.90 0.74 0.68 0.79 0.86 0.92 0.88 0.80 0.81 0.79 0.69 0.66
0.59 0.51 0.49 0.48 0.50 0.53 0.52 0.49 0.52 0.55 0.57 0.62 0.73 0.83 0.86 0.81 0.83 0.94 1.02 0.91 0.75 0.77 0.76 0.70 0.63 0.64 0.65 0.76 0.80 0.83 0.82 0.82 0.86 0.78 0.71 0.78 0.85 0.88 0.85 0.78 0.73 0.68 0.62 0.65
0.57 0.50 0.46 0.44 0.41 0.39 0.33 0.32 0.39 0.49 0.57 0.63 0.72 0.85 0.96 1.00 1.01 1.00 0.91 0.89 0.80 0.77 0.69 0.61 0.54 0.52 0.52 0.58 0.70 0.74 0.74 0.73 0.77 0.76 0.72 0.75 0.82 0.85 0.83 0.74 0.67 0.61 0.58 0.59
0.54 0.51 0.46 0.41 0.40 0.38 0.32 0.30 0.32 0.41 0.52 0.60 0.69 0.88 1.03 1.06 1.14 1.27 1.09 0.81 0.73 0.73 0.66 0.56 0.51 0.48 0.44 0.43 0.57 0.66 0.67 0.72 0.74 0.74 0.70 0.66 0.66 0.69 0.70 0.65 0.60 0.59 0.62 0.65
0.55 0.49 0.51 0.48 0.41 0.35 0.35 0.36 0.37 0.43 0.50 0.55 0.64 0.83 1.04 1.18 1.13 1.00 0.95 0.83 0.71 0.64 0.60 0.54 0.45 0.43 0.41 0.38 0.46 0.55 0.61 0.66 0.65 0.63 0.61 0.58 0.61 0.65 0.63 0.60 0.59 0.60 0.65 0.67
0.52 0.50 0.51 0.53 0.50 0.49 0.51 0.53 0.54 0.56 0.60 0.61 0.61 0.67 0.80 1.02 1.16 0.99 0.80 0.72 0.67 0.58 0.56 0.55 0.47 0.42 0.38 0.35 0.37 0.44 0.50 0.54 0.54 0.53 0.52 0.55 0.59 0.59 0.54 0.53 0.55 0.58 0.62 0.65
0.51 0.50 0.51 0.52 0.52 0.56 0.64 0.72 0.79 0.82 0.86 0.89 0.80 0.73 0.76 0.85 0.95 0.93 0.80 0.69 0.64 0.60 0.54 0.53 0.50 0.44 0.40 0.38 0.36 0.39 0.45 0.52 0.54 0.54 0.51 0.55 0.54 0.52 0.52 0.54 0.51 0.51 0.54 0.54
0.51 0.47 0.46 0.50 0.54 0.58 0.71 0.84 0.95 1.03 1.09 1.17 1.10 0.91 0.83 0.80 0.84 0.85 0.79 0.72 0.68 0.66 0.63 0.59 0.55 0.52 0.49 0.45 0.40 0.39 0.45 0.52 0.55 0.56 0.57 0.60 0.62 0.61 0.57 0.55 0.50 0.47 0.47 0.43